sat.trackr.live / text

‹ back to catalog

STARLINK-35227

NORAD 65654 · 2025-211C

PAYLOAD ACTIVE UNKNOWN

§ Identity

Operator
Country
US
Launch date
2025-09-19
Launch site
AFWTR
Launch vehicle
Mass (kg)
RCS (m²)

Purposes: comms

External: N2YO · Heavens-Above · Gunter

§ Orbital elements

Epoch: 2026-09-20T20:28:08.852736Z

Period
93.91 min
Inclination
97.2827°
Eccentricity
0.0000840
Mean motion
15.33445108 rev/d
Perigee alt
465.0 km
Apogee alt
466.1 km
Semi-major
6,843.7 km
B*
2.9023e-4
RAAN
304.0200°
Arg perigee
86.9183°
Mean anomaly
273.2156°
Rev number
5,657

§ Raw data

STARLINK-352271 65654U 25211C   26263.85288024  .00009306  00000+0  29023-3 0  99992 65654  97.2827 304.0200 0000840  86.9183 273.2156 15.33445108 56572

JSON: /api/v1/satellites/65654 · /tle

For live sub-satellite position, see the globe view (requires WebGL).

§ Visibility from observer

Set your observer location to see the next 7 days of passes ≥ 10°. The values pass through the URL so the page stays shareable.

No JS? Fill the form by hand. The geolocation button needs JavaScript.